Location: Altmatt
(47.1333°N, 8.7000°E)
Time: 01:11:04
(UTC+00:00)

NOSS 3-3 (A) - Pass Details

Date: 13 July 2020
Orbit: 825 x 1387 km, 63.4° (Epoch: 01 August)

Event Time Altitude Azimuth Distance (km) Brightness Sun altitude
Rises 19:59:39 0° 227° (SW) 3,422 6.9 -6.4°
Reaches altitude 10° 20:02:01 10° 230° (SW) 2,532 6.3 -6.7°
Maximum altitude 20:07:52 69° 313° (NW) 1,014 4.4 -7.4°
Drops below altitude 10° 20:14:33 10° 38° (NE) 2,880 6.6 -8.2°
Sets 20:17:24 0° 41° (NE) 3,927 7.2 -8.6°
